Weather reports worldwide

Advertisment
Murcia, Spain (8430): temperature & dewpoint: 14.06.2019 06:00:00 - 20.06.2019 06:00:00 (CEST)Murcia, Spain (8430): wind speed: 14.06.2019 06:00:00 - 20.06.2019 06:00:00 (CEST)Murcia, Spain (8430): wind direction: 14.06.2019 06:00:00 - 20.06.2019 06:00:00 (CEST)Murcia, Spain (8430): reduced air pressure: 14.06.2019 06:00:00 - 20.06.2019 06:00:00 (CEST)Murcia, Spain (8430): visibility: 14.06.2019 06:00:00 - 20.06.2019 06:00:00 (CEST)Murcia, Spain (8430): precipitation: 14.06.2019 06:00:00 - 20.06.2019 06:00:00 (CEST)
Date & Time tt [°C] td [°C] ff [km/h] ff [kn] dd ppp [hPa] vv [km] rr [mm]
20.06.2019 06:00:00 - - - - - - - -
20.06.2019 05:00:00 20,8 14,2 8 4 W 1011,2 17 -
20.06.2019 04:00:00 21,2 15,5 5 3 SSW 1011,6 14 0,0
20.06.2019 03:00:00 21,2 15,3 4 2 WSW 1012,2 11 0,0
20.06.2019 02:00:00 22,5 15,6 5 3 SSW 1012,3 18 -
20.06.2019 01:00:00 22,9 15,5 5 3 N 1012,4 17 0,0
20.06.2019 00:00:00 23,7 17,0 9 5 ENE 1012,0 17 0,0
19.06.2019 23:00:00 25,4 16,0 11 6 ENE 1011,8 19 -
19.06.2019 22:00:00 28,7 9,9 8 4 E 1010,6 20 0,0
19.06.2019 21:00:00 31,2 8,8 11 6 ENE 1010,4 20 0,0
19.06.2019 20:00:00 33,1 7,8 8 4 E 1010,3 20 -
19.06.2019 19:00:00 34,1 8,7 11 6 E 1010,2 20 0,0
19.06.2019 18:00:00 34,5 9,7 9 5 SSE 1010,4 20 0,0
19.06.2019 17:00:00 34,8 9,9 15 8 SSE 1010,7 25 -
19.06.2019 16:00:00 34,9 10,7 16 9 SSE 1011,1 20 0,0
19.06.2019 15:00:00 34,7 10,5 8 4 ENE 1011,5 20 0,0
19.06.2019 14:00:00 33,8 10,4 8 4 SSE 1012,4 25 -
19.06.2019 13:00:00 32,1 10,7 8 4 W 1013,1 20 0,0
19.06.2019 12:00:00 31,2 10,5 11 6 W 1013,1 20 0,0
19.06.2019 11:00:00 29,6 11,2 13 7 NNW 1013,4 20 -
19.06.2019 10:00:00 26,0 13,5 5 3 SW 1013,9 19 0,0
19.06.2019 09:00:00 22,5 14,6 4 2 SSW 1014,1 17 0,0
19.06.2019 08:00:00 20,1 14,0 5 3 SSW 1013,9 20 -
19.06.2019 07:00:00 19,0 14,5 4 2 SSW 1013,7 11 0,0
19.06.2019 06:00:00 19,5 14,9 5 3 WSW 1013,8 14 0,0
19.06.2019 05:00:00 19,6 15,5 5 3 W 1013,7 13 -
19.06.2019 04:00:00 19,9 15,9 5 3 W 1013,7 11 0,0
19.06.2019 03:00:00 20,2 15,8 5 3 SW 1013,9 10 0,0
19.06.2019 02:00:00 20,4 17,0 4 2 ENE 1014,2 13 -
19.06.2019 01:00:00 20,9 16,9 8 4 ENE 1014,4 15 0,0
19.06.2019 00:00:00 21,8 17,0 9 5 ENE 1014,5 17 0,0
18.06.2019 23:00:00 22,6 16,2 13 7 NE 1014,2 19 -
18.06.2019 22:00:00 24,2 15,4 16 9 NE 1013,3 20 0,0
18.06.2019 21:00:00 26,5 13,3 18 10 ENE 1012,7 20 0,0
18.06.2019 20:00:00 30,2 9,1 8 4 ESE 1012,3 20 -
18.06.2019 19:00:00 31,3 7,0 11 6 SE 1012,2 20 0,0
18.06.2019 18:00:00 32,1 9,6 13 7 SE 1012,4 20 0,0
18.06.2019 17:00:00 32,1 9,0 13 7 SSE 1012,6 20 -
18.06.2019 16:00:00 31,9 11,7 9 5 SE 1012,9 20 0,0
18.06.2019 15:00:00 31,5 14,2 11 6 ESE 1013,5 20 0,0
18.06.2019 14:00:00 31,0 12,4 9 5 SE 1014,4 25 -
18.06.2019 13:00:00 29,9 13,2 13 7 E 1014,7 19 0,0
18.06.2019 12:00:00 28,1 12,4 8 4 E 1015,2 19 0,0
18.06.2019 11:00:00 26,4 11,7 8 4 E 1015,3 20 -
18.06.2019 10:00:00 23,3 11,0 2 1 SW 1015,7 19 0,0
18.06.2019 09:00:00 20,6 10,4 2 1 WSW 1015,9 19 0,0
18.06.2019 08:00:00 18,3 11,1 5 3 W 1015,9 20 -
18.06.2019 07:00:00 16,3 11,9 2 1 WSW 1015,6 14 0,0
18.06.2019 06:00:00 16,6 11,9 4 2 NW 1015,3 14 0,0
18.06.2019 05:00:00 16,5 12,3 4 2 WNW 1015,2 13 -
18.06.2019 04:00:00 17,4 13,1 0 0 N 1015,3 13 0,0
18.06.2019 03:00:00 18,9 13,7 4 2 W 1015,9 15 0,0
18.06.2019 02:00:00 19,1 14,6 5 3 NNE 1016,2 14 -
18.06.2019 01:00:00 20,3 14,4 8 4 ENE 1016,4 18 0,0
18.06.2019 00:00:00 21,3 14,2 15 8 NE 1016,5 19 0,0
17.06.2019 23:00:00 22,6 12,2 15 8 ENE 1016,2 20 -
17.06.2019 22:00:00 25,2 11,4 5 3 ESE 1015,2 20 0,0
17.06.2019 21:00:00 27,9 10,6 9 5 SSE 1014,7 20 0,0
17.06.2019 20:00:00 29,4 9,5 13 7 SE 1014,2 75 -
17.06.2019 19:00:00 31,3 6,4 11 6 SE 1014,1 20 0,0
17.06.2019 18:00:00 32,1 9,6 11 6 SE 1014,2 20 0,0
17.06.2019 17:00:00 32,3 10,9 11 6 SE 1014,3 50 -
17.06.2019 16:00:00 32,4 9,8 13 7 ESE 1014,6 19 0,0
17.06.2019 15:00:00 32,6 8,1 9 5 ESE 1015,1 20 0,0
17.06.2019 14:00:00 31,7 8,6 9 5 E 1015,7 50 -
17.06.2019 13:00:00 30,3 9,8 5 3 ESE 1016,4 16 0,0
17.06.2019 12:00:00 28,2 10,8 4 2 SSE 1017,1 18 0,0
17.06.2019 11:00:00 25,6 10,6 4 2 S 1017,6 30 -
17.06.2019 10:00:00 22,4 11,8 4 2 WSW 1018,0 16 0,0
17.06.2019 09:00:00 19,6 11,1 8 4 W 1018,2 4,6 0,0
17.06.2019 08:00:00 16,9 11,0 8 4 W 1018,2 15 -
17.06.2019 07:00:00 16,1 11,9 5 3 W 1017,9 16 0,0
17.06.2019 06:00:00 16,7 11,6 4 2 SW 1017,7 16 0,0
17.06.2019 05:00:00 16,7 12,0 8 4 W 1017,8 9 -
17.06.2019 04:00:00 17,6 13,1 4 2 W 1018,0 14 0,0
17.06.2019 03:00:00 17,0 14,3 4 2 WNW 1018,4 12 0,0
17.06.2019 02:00:00 18,0 14,7 4 2 NW 1018,6 12 -
17.06.2019 01:00:00 18,8 14,7 4 2 N 1018,9 10 0,0
17.06.2019 00:00:00 20,0 15,8 2 1 ENE 1018,9 16 0,0
16.06.2019 23:00:00 21,0 15,3 5 3 E 1018,7 17 -
16.06.2019 22:00:00 21,5 14,6 8 4 ENE 1018,4 19 0,0
16.06.2019 21:00:00 22,8 13,6 8 4 ENE 1018,2 20 0,0
16.06.2019 20:00:00 23,5 15,3 9 5 E 1017,9 30 -
16.06.2019 19:00:00 24,6 15,0 11 6 E 1018,2 20 0,0
16.06.2019 18:00:00 25,4 15,4 15 8 E 1018,0 19 0,0
16.06.2019 17:00:00 24,6 15,8 16 9 E 1018,5 30 -
16.06.2019 16:00:00 25,2 15,5 13 7 E 1018,5 18 0,0
16.06.2019 15:00:00 26,0 14,1 21 11 ENE 1018,4 19 0,0
16.06.2019 14:00:00 26,5 15,2 16 9 E 1019,2 30 -
16.06.2019 13:00:00 26,1 14,9 15 8 E 1019,4 14 0,0
16.06.2019 12:00:00 25,1 13,9 9 5 E 1019,6 13 0,0
16.06.2019 11:00:00 24,2 12,5 9 5 ESE 1020,0 30 -
16.06.2019 10:00:00 23,3 8,9 8 4 E 1020,0 9 0,0
16.06.2019 09:00:00 21,4 8,6 5 3 N 1019,7 13 0,0
16.06.2019 08:00:00 18,8 8,2 8 4 W 1019,2 25 -
16.06.2019 07:00:00 16,7 8,4 8 4 WNW 1018,8 19 0,0
16.06.2019 06:00:00 17,4 8,5 4 2 SW 1018,1 19 0,0
16.06.2019 05:00:00 18,5 8,7 5 3 W 1017,6 19 -
16.06.2019 04:00:00 18,4 10,2 4 2 NW 1018,1 19 0,0
16.06.2019 03:00:00 19,3 11,6 8 4 NNE 1018,3 19 0,0
16.06.2019 02:00:00 19,9 10,9 8 4 NE 1018,8 20 -
16.06.2019 01:00:00 20,6 8,6 8 4 NE 1018,8 20 0,0
16.06.2019 00:00:00 22,0 8,5 8 4 NNE 1018,5 20 0,0
15.06.2019 23:00:00 23,3 6,1 5 3 NNW 1017,8 20 -
15.06.2019 22:00:00 25,6 6,7 4 2 SE 1016,7 19 0,0
15.06.2019 21:00:00 28,1 7,3 5 3 SSE 1016,0 18 0,0
15.06.2019 20:00:00 29,3 7,8 11 6 SSE 1015,5 75 -
15.06.2019 19:00:00 30,2 8,6 13 7 SSE 1014,8 19 0,0
15.06.2019 18:00:00 30,4 8,7 13 7 SE 1014,9 20 0,0
15.06.2019 17:00:00 31,0 10,4 16 9 SSE 1015,0 75 -
15.06.2019 16:00:00 32,0 6,9 9 5 SSE 1015,3 19 0,0
15.06.2019 15:00:00 30,9 6,0 8 4 WSW 1016,0 19 0,0
15.06.2019 14:00:00 29,6 5,6 8 4 S 1016,8 75 -
15.06.2019 13:00:00 27,6 5,2 9 5 W 1017,5 20 0,0
15.06.2019 12:00:00 26,5 5,4 11 6 NW 1017,8 20 0,0
15.06.2019 11:00:00 25,5 5,6 16 9 NNW 1018,2 75 -
15.06.2019 10:00:00 23,7 5,1 22 12 NW 1018,2 19 0,0
15.06.2019 09:00:00 22,6 5,1 22 12 NW 1017,7 20 0,0
15.06.2019 08:00:00 21,8 4,8 11 6 WNW 1016,9 25 -
15.06.2019 07:00:00 20,8 5,2 8 4 W 1016,4 19 0,0
15.06.2019 06:00:00 21,4 5,7 8 4 W 1015,5 19 0,0
15.06.2019 05:00:00 22,3 5,2 16 9 WNW 1014,9 20 -
15.06.2019 04:00:00 23,1 4,6 22 12 WNW 1014,5 20 0,0
15.06.2019 03:00:00 23,8 4,2 28 15 NW 1014,0 18 0,0
15.06.2019 02:00:00 24,3 5,6 21 11 WNW 1013,8 19 -
15.06.2019 01:00:00 22,6 11,9 4 2 SSW 1013,9 16 0,0
15.06.2019 00:00:00 23,8 11,8 5 3 WNW 1013,5 17 0,0
14.06.2019 23:00:00 25,2 11,4 9 5 WSW 1012,6 14 -
14.06.2019 22:00:00 26,5 11,8 4 2 S 1011,8 16 0,0
14.06.2019 21:00:00 28,5 13,2 5 3 S 1011,1 16 0,0
14.06.2019 20:00:00 29,8 12,2 8 4 SSE 1010,6 50 -
14.06.2019 19:00:00 30,5 13,3 13 7 S 1010,2 10 0,0
14.06.2019 18:00:00 31,2 13,5 11 6 SE 1010,1 14 0,0
14.06.2019 17:00:00 31,1 13,4 13 7 SSE 1010,4 50 -
14.06.2019 16:00:00 30,8 14,8 13 7 S 1010,7 - 0,0
14.06.2019 15:00:00 30,4 15,3 9 5 ESE 1011,0 16 0,0
14.06.2019 14:00:00 29,7 11,7 8 4 SSW 1011,5 50 -
14.06.2019 13:00:00 27,6 14,2 4 2 S 1012,1 9 0,0
14.06.2019 12:00:00 25,0 15,6 5 3 SSW 1012,4 9 0,0
14.06.2019 11:00:00 22,9 17,4 5 3 WSW 1012,5 20 -
14.06.2019 10:00:00 20,4 17,6 8 4 SW 1012,5 1,7 0,0
14.06.2019 09:00:00 19,9 16,7 8 4 W 1012,1 1,5 1,0
14.06.2019 08:00:00 21,3 14,9 8 4 W 1011,3 15 -
14.06.2019 07:00:00 21,4 14,5 8 4 WSW 1010,7 13 0,0
14.06.2019 06:00:00 21,1 14,0 4 2 SW 1010,0 20 0,0

tt = temperature
td = dewpoint
ff = wind speed
dd = wind direction
ppp = reduced air pressure
vv = visibility
rr = precipitation

Next stations